Theta_e
293 294 291 289 291 290 290 289 288 287 289 288 286 287 290 288 286 285 290 288 288 292 294 295 295 293 294 293 292 292 290 288 286 285 286 286 286 285 285 286 286 285 285 285 285 284 284 284 284 284 284 284 284 283 283 283 282 283 283 282 282 281 281 280 280 280 280 280 279 279 278 278 278 278 278 278 278 276 276 277 277 277 277 276 274 275 275
291 292 292 289 289 287 287 288 288 289 288 287 288 288 290 289 289 291 292 291 290 293 295 293 295 295 296 296 291 288 289 290 289 287 287 287 286 286 286 286 287 286 286 285 285 284 284 284 284 284 284 284 283 283 282 282 282 282 282 282 282 282 281 281 281 281 281 280 279 278 278 278 277 278 278 278 277 276 276 276 276 276 276 276 275 275 274
288 291 291 288 288 287 287 287 287 288 288 288 288 289 289 289 290 291 291 290 290 295 292 294 295 294 293 290 289 292 292 292 289 289 289 289 288 287 287 287 287 286 286 285 285 284 284 284 284 284 284 284 283 283 282 282 282 282 283 282 282 282 281 281 281 281 280 280 279 278 278 278 278 278 278 277 276 276 276 275 275 275 275 275 275 275 274
286 289 289 288 286 287 287 288 288 287 287 284 286 286 290 288 288 289 289 288 289 294 293 297 292 290 292 294 294 292 292 291 289 289 289 289 289 289 289 288 287 286 286 285 285 285 285 284 283 283 284 284 284 283 283 283 283 282 282 282 282 282 282 282 281 281 280 280 279 279 278 278 278 278 277 275 275 276 276 276 276 275 275 275 275 274 274
285 288 287 286 286 286 285 286 289 290 289 289 289 290 291 291 292 288 286 288 294 296 293 291 290 292 293 293 293 292 291 290 290 291 291 290 290 290 289 288 288 288 288 287 286 286 285 285 284 284 285 284 284 284 284 283 283 282 282 282 282 282 282 281 281 281 280 280 279 279 278 278 278 277 276 276 276 276 276 276 275 274 275 275 274 273 273
286 286 285 286 285 279 282 293 294 295 290 289 287 287 289 291 292 291 294 294 296 295 291 292 294 291 292 294 294 294 295 292 288 289 290 291 291 290 289 289 288 288 288 287 287 286 286 286 285 285 285 285 285 285 284 283 283 282 282 282 282 282 282 281 281 280 280 280 279 279 278 278 277 276 276 276 276 276 276 275 275 274 274 274 274 273 273
285 285 286 283 278 282 290 287 287 289 295 294 291 292 292 292 292 293 292 293 293 294 295 294 294 293 292 291 292 291 289 289 290 291 291 291 291 290 288 287 287 288 288 288 287 286 286 286 285 285 284 284 284 283 283 283 282 282 283 283 282 282 282 281 281 280 280 280 279 279 278 278 277 276 276 276 276 276 276 275 275 274 274 274 274 273 273
284 281 284 277 280 287 288 286 283 284 288 289 291 289 292 293 293 293 291 293 295 296 296 294 291 289 288 288 287 285 285 287 290 291 292 291 289 287 287 288 288 288 288 288 287 287 286 286 285 285 284 284 284 283 283 283 283 283 283 282 282 282 282 281 281 280 280 280 279 279 278 277 276 276 276 276 276 276 275 275 275 275 274 274 273 273 273
281 282 283 284 288 287 289 288 284 288 287 286 288 286 290 294 294 293 292 293 294 294 294 294 292 285 287 287 289 284 285 286 288 290 289 289 289 289 289 289 289 289 289 288 288 287 286 286 285 285 285 284 284 283 283 283 283 283 283 282 282 282 282 282 281 281 280 280 279 278 278 277 277 277 277 276 276 276 274 275 275 274 274 274 273 273 272
286 284 282 281 282 279 286 288 286 290 289 291 293 290 288 289 291 293 293 292 293 292 292 292 285 285 287 288 291 288 287 286 287 288 287 287 287 287 287 287 287 287 287 287 287 287 286 285 285 285 285 284 284 283 283 283 283 283 283 282 283 283 282 282 281 281 280 280 279 279 278 277 277 277 277 277 276 276 275 274 274 274 274 273 273 272 272
283 283 280 281 279 283 286 285 283 282 280 288 286 286 285 285 281 280 289 292 292 291 291 284 285 287 287 289 291 286 285 285 285 285 285 285 285 286 286 287 287 287 287 287 287 287 286 285 285 285 285 285 284 283 283 283 283 283 283 283 283 282 282 282 281 281 280 280 280 279 278 278 278 277 277 277 277 275 275 275 275 274 273 272 272 271 271
285 284 282 280 284 285 285 283 281 282 279 289 289 279 281 285 281 280 280 286 287 286 285 284 286 287 287 289 287 286 284 283 284 284 285 285 285 285 285 286 287 287 287 287 286 286 286 286 286 285 285 285 285 284 284 283 283 283 283 283 283 283 282 282 281 281 280 280 280 280 279 279 278 277 277 276 275 274 273 273 273 272 272 272 271 271 270
284 285 283 284 285 286 284 284 283 280 282 289 284 280 284 285 281 278 280 281 282 283 283 286 287 286 283 283 283 283 283 285 283 283 284 284 284 284 285 285 286 287 287 287 287 287 286 286 286 285 285 285 284 284 283 282 282 283 283 283 283 282 282 281 281 280 280 280 280 280 280 279 279 277 276 276 274 272 272 271 270 270 271 270 270 270 268
283 284 282 283 286 287 285 283 284 283 288 281 281 286 282 281 279 279 281 281 281 282 284 284 283 282 278 279 282 283 283 283 282 282 283 284 284 284 285 285 286 286 286 285 285 284 284 285 285 285 285 285 284 283 282 282 283 283 282 282 281 281 280 280 280 280 280 280 280 280 279 278 277 276 275 274 274 273 272 270 269 270 269 268 268 268 266
283 283 282 281 277 287 287 286 284 284 283 284 284 281 279 280 280 280 281 281 282 282 281 278 278 278 278 279 280 281 282 283 283 283 284 284 284 284 285 284 284 286 285 284 284 283 282 283 284 285 285 284 283 282 281 282 282 281 281 280 280 280 280 280 279 279 280 279 279 279 278 277 277 276 273 272 272 271 270 269 269 268 268 267 266 266 266
279 282 279 281 287 286 287 290 286 286 285 284 282 281 281 280 279 279 281 281 281 280 280 279 279 279 279 279 279 279 279 280 281 281 281 281 281 281 281 282 282 283 283 281 280 279 279 280 282 284 284 282 281 281 282 281 280 279 279 279 279 279 279 279 278 278 278 278 278 278 277 276 275 275 273 272 270 270 269 269 268 268 268 267 266 266 266
285 284 286 285 282 284 283 282 283 283 284 282 281 281 281 281 280 279 280 282 283 282 280 280 281 280 280 280 280 281 280 280 280 280 281 281 282 282 282 281 281 282 281 279 278 277 277 278 279 281 282 282 280 281 280 279 279 279 278 277 278 277 277 277 277 277 276 277 277 276 276 276 275 275 273 270 270 268 268 268 268 269 269 268 267 267 267
283 284 283 283 281 282 282 283 282 281 282 281 280 280 281 280 280 280 281 283 282 280 280 280 278 278 278 277 277 278 279 279 279 279 280 279 279 279 279 278 279 279 279 278 278 276 273 273 275 275 276 280 279 277 276 277 277 277 276 276 276 277 276 276 276 276 275 275 275 276 275 275 276 276 274 271 272 270 268 269 269 269 270 268 267 267 268
286 283 283 282 284 283 282 283 283 282 281 281 280 280 280 280 279 279 281 284 281 279 278 279 278 277 276 276 277 278 278 279 279 279 279 279 279 279 279 277 277 278 279 278 276 276 277 273 272 271 271 273 271 270 271 273 273 274 275 276 276 275 275 275 272 274 275 275 274 273 273 273 273 274 274 272 272 270 269 269 269 269 270 269 269 268 268
284 282 280 281 280 279 281 281 282 283 282 279 278 279 280 280 280 281 281 281 281 280 279 278 278 277 277 279 279 279 279 279 278 277 277 277 277 275 275 274 274 275 276 277 275 273 275 273 271 270 270 271 270 270 268 270 269 271 273 275 276 275 274 273 273 273 275 272 273 273 272 273 273 272 272 272 272 272 270 270 270 270 269 269 269 269 269
280 281 280 278 281 283 283 282 281 283 283 281 279 279 280 281 281 280 279 280 281 281 280 278 278 278 278 278 279 279 279 278 278 277 277 277 277 276 276 273 274 276 273 273 272 272 272 271 270 270 270 270 269 271 269 267 269 271 271 271 271 270 269 269 272 271 273 273 274 274 273 271 273 274 274 272 272 273 274 272 272 272 271 271 271 271 270
278 282 283 281 283 283 286 285 284 284 284 281 279 279 279 280 280 280 281 279 278 279 280 279 280 281 279 278 279 279 279 279 278 277 276 275 275 274 273 272 271 271 271 272 272 272 273 271 271 271 269 269 269 269 266 266 270 272 270 268 268 269 268 270 269 268 269 270 270 271 271 271 270 270 270 275 274 272 271 274 276 277 276 271 270 266 268
282 284 283 287 287 287 287 289 288 286 284 281 279 280 280 280 280 281 281 280 279 279 279 280 281 280 279 278 278 277 276 276 276 277 276 276 275 274 273 273 271 271 271 271 272 272 272 270 269 269 269 268 268 267 268 267 269 270 269 270 270 270 268 270 270 269 268 269 269 268 269 268 268 268 268 269 276 277 277 275 275 276 277 278 278 276 270
283 285 285 286 286 286 286 286 287 285 284 282 280 280 280 280 279 279 280 281 280 279 278 277 279 279 278 278 278 277 275 275 275 275 275 275 275 274 274 275 274 272 272 272 272 273 272 270 270 269 269 268 267 266 266 266 267 268 268 271 271 270 269 267 268 268 267 267 266 265 265 264 264 264 265 267 268 273 276 277 278 277 277 277 278 278 278
285 284 285 286 286 285 280 282 284 285 284 283 281 280 280 279 278 278 279 279 280 280 279 277 276 278 278 277 278 278 276 275 276 276 275 275 275 275 273 272 273 273 273 272 271 272 271 270 270 269 266 264 263 263 264 265 266 268 266 268 269 268 266 266 266 267 265 264 264 263 264 262 262 262 264 264 266 267 266 274 276 277 278 278 278 278 279
283 284 284 284 281 279 278 281 282 282 282 282 281 279 279 279 278 277 277 279 279 279 279 278 277 276 277 276 276 276 276 276 276 276 275 275 273 273 273 272 272 272 271 271 270 269 269 268 267 265 262 260 260 260 261 263 264 264 264 265 265 266 265 264 264 264 264 263 263 264 262 263 262 262 263 264 264 264 263 262 265 269 273 276 277 278 278
282 284 284 283 283 282 279 284 284 282 281 280 281 280 278 278 278 277 277 276 276 277 278 277 277 275 274 275 275 275 277 274 273 274 273 273 273 272 270 269 270 270 269 269 268 267 267 266 263 261 259 258 258 259 259 260 261 261 261 262 260 263 265 265 263 263 263 263 263 262 262 261 261 262 263 261 262 262 261 261 262 263 261 263 269 274 274
282 284 287 285 282 284 281 279 278 280 280 279 278 278 276 276 277 277 277 277 276 274 275 274 276 276 276 274 275 274 274 274 273 271 272 270 267 268 269 269 268 267 265 265 264 264 263 262 261 259 257 258 258 258 258 258 260 260 261 261 260 261 261 261 261 262 261 260 261 261 261 261 260 261 261 261 262 261 260 260 260 260 259 261 261 267 271
281 282 279 280 282 279 276 275 275 277 276 276 277 277 277 277 276 277 276 276 275 275 275 272 272 273 275 272 274 274 272 272 271 270 267 265 264 265 265 265 264 263 262 261 260 260 259 259 258 258 257 257 257 258 256 257 259 259 260 259 260 259 260 260 259 260 260 259 259 260 264 261 261 259 260 260 260 259 258 258 258 257 257 255 257 260 267
279 278 276 275 275 276 277 275 275 275 275 276 277 277 278 278 276 275 275 274 273 275 273 272 273 271 271 271 270 273 272 271 268 266 264 262 261 261 262 264 264 262 261 259 257 256 256 256 256 256 256 256 256 256 255 256 257 255 257 258 257 259 258 257 256 257 257 257 258 264 261 260 258 260 259 258 258 258 258 257 258 258 256 255 262 258 260
273 273 273 273 274 275 277 275 274 273 275 275 277 276 275 276 277 275 273 273 272 273 271 272 272 270 269 270 267 267 267 265 263 261 259 258 258 258 258 261 264 262 258 255 255 255 255 255 255 256 255 254 255 255 255 256 255 257 258 260 258 264 267 267 266 259 256 257 258 256 256 257 257 257 258 257 257 256 255 255 255 255 256 256 257 258 259
274 272 272 272 273 273 272 273 273 274 274 274 274 275 275 275 274 273 272 272 271 271 270 270 271 269 267 265 266 265 264 262 260 259 258 257 257 256 256 256 256 256 254 254 254 255 255 255 255 254 253 254 254 254 256 258 258 257 256 259 258 258 262 264 261 262 259 258 257 256 256 255 254 255 255 255 255 255 254 255 254 255 255 257 257 257 259
275 272 271 271 270 271 272 271 274 272 272 273 273 272 270 271 274 273 273 272 271 270 271 270 267 265 264 266 265 264 262 260 259 258 257 255 255 255 254 254 254 254 253 254 254 255 255 255 254 254 253 253 254 254 255 255 256 254 254 256 258 259 261 263 262 258 258 256 255 255 254 255 254 253 255 256 256 255 254 255 255 256 257 257 257 258 261
278 278 277 276 277 275 274 273 271 273 270 270 268 269 270 272 272 271 270 268 268 268 269 267 263 261 263 264 264 263 264 266 264 258 255 254 253 253 253 254 254 253 253 253 254 254 254 254 254 254 254 254 254 255 254 255 255 254 253 254 256 256 256 257 258 256 255 256 256 258 255 256 254 255 257 258 257 255 256 256 257 258 258 259 259 258 262
270 267 270 268 265 270 273 275 273 272 271 269 266 265 266 267 269 268 267 268 267 265 262 261 261 262 262 262 262 261 262 263 260 256 254 254 253 253 254 253 253 253 253 253 253 253 252 253 253 254 254 254 254 254 255 254 253 253 253 254 256 255 255 256 255 255 255 255 254 253 254 254 254 257 257 256 256 257 257 257 257 258 257 256 254 254 257
265 267 266 264 261 260 265 270 272 272 271 270 267 264 263 262 262 264 264 261 260 261 261 261 260 260 260 260 259 258 257 256 255 255 254 253 253 254 254 253 253 253 253 254 253 251 251 252 257 257 255 255 254 254 255 255 251 252 254 253 254 255 255 255 254 254 254 253 253 254 253 256 256 256 256 257 258 258 257 256 255 255 254 253 253 253 252
260 262 262 261 259 259 260 262 264 268 266 264 262 261 260 258 257 256 257 258 258 259 259 258 259 258 255 254 254 254 255 255 256 256 255 255 255 254 253 252 252 252 254 255 254 251 248 253 256 256 254 252 254 253 256 258 252 251 252 251 252 253 253 253 253 253 254 255 255 255 257 256 256 255 256 255 254 254 254 252 253 253 252 252 252 251 252
258 258 257 257 256 256 256 256 259 260 259 258 257 257 257 257 255 255 255 255 256 257 257 257 256 254 254 254 254 254 254 254 254 254 253 252 251 252 251 252 251 250 252 250 249 247 248 252 255 251 249 250 250 251 255 258 257 251 251 252 253 254 254 254 254 254 253 252 255 253 252 252 251 250 250 249 249 251 252 252 252 251 250 250 250 250 250
257 257 256 256 256 255 255 254 254 256 259 258 255 254 254 255 255 255 255 254 254 256 255 254 254 254 254 254 253 251 250 249 250 250 250 250 250 252 250 247 247 248 248 248 247 247 251 252 250 248 248 248 252 252 255 257 257 252 251 251 252 253 253 253 252 252 252 252 250 249 248 249 249 249 249 249 249 251 252 252 251 251 250 248 248 248 248
257 256 255 255 255 254 253 253 253 252 252 253 255 254 253 254 254 254 254 254 253 254 255 255 255 255 253 253 253 251 246 246 247 249 249 250 250 250 249 247 247 246 248 253 247 247 252 254 248 246 248 249 250 249 253 255 255 251 249 250 250 250 250 251 250 249 248 247 249 252 248 249 249 250 250 250 249 249 248 248 248 248 248 247 245 245 247
256 256 255 255 254 254 253 253 252 252 251 251 251 251 252 253 254 255 255 253 253 253 254 254 254 253 253 253 251 248 246 246 247 248 248 251 251 251 253 249 249 246 245 247 248 250 253 252 249 246 248 251 251 254 249 253 247 246 248 248 248 248 248 249 249 249 249 249 251 249 248 248 249 248 249 248 248 247 247 247 247 247 246 246 246 246 246
255 255 255 254 253 253 252 251 251 251 251 250 250 251 250 251 253 253 251 251 252 253 252 252 253 252 251 249 249 248 248 247 247 246 246 249 250 252 253 249 248 245 252 252 251 250 247 246 249 251 250 250 249 254 254 252 246 244 245 247 247 248 248 249 249 248 249 248 248 247 247 248 247 246 247 247 246 247 247 247 246 246 245 246 247 247 246
254 254 253 252 252 251 251 251 251 250 250 250 250 250 251 251 252 252 252 252 252 252 252 251 251 251 251 250 250 250 248 246 248 248 248 245 244 245 248 250 245 244 253 251 246 243 246 246 246 247 252 253 251 254 254 250 249 247 245 247 249 248 248 248 248 248 247 246 245 245 245 245 245 245 247 246 247 246 246 246 246 247 247 247 246 246 246
252 252 252 251 251 251 251 251 251 251 250 249 250 250 250 250 251 252 252 253 253 253 252 252 251 250 250 251 251 250 248 249 248 248 251 248 250 248 244 246 245 249 254 249 248 247 248 248 246 249 254 254 255 254 252 250 250 250 248 247 248 248 248 247 247 247 247 247 247 245 245 247 247 245 245 246 247 246 246 246 246 245 247 246 246 246 247
252 252 252 252 252 253 253 252 251 251 250 250 250 249 249 250 250 250 252 252 252 252 252 252 252 252 251 250 250 248 247 247 247 248 251 249 250 249 248 250 249 248 251 253 248 248 245 243 248 254 254 255 255 254 251 250 251 251 250 250 249 247 247 247 247 247 247 247 247 247 248 247 246 246 246 247 249 248 248 248 248 247 248 247 248 248 248
251 252 252 252 251 251 251 251 251 251 251 251 250 249 249 248 249 249 250 250 251 251 251 251 251 250 250 248 247 246 245 246 244 244 245 246 249 249 248 249 248 251 253 253 248 248 244 252 254 254 255 255 255 253 251 251 251 250 250 250 249 248 247 247 248 247 247 247 248 247 247 248 245 247 246 246 246 247 249 249 249 248 248 248 247 248 249
251 251 251 251 251 251 251 252 253 254 254 253 251 250 249 248 249 249 248 248 248 248 248 249 249 249 249 250 250 251 251 250 249 247 244 246 249 250 251 253 253 253 252 248 248 247 247 249 252 254 255 255 254 251 249 249 249 249 250 248 248 247 248 248 247 248 247 247 248 250 250 249 247 247 248 249 248 249 248 248 249 249 249 249 249 249 250
252 251 251 251 251 251 252 252 252 252 252 251 251 250 249 249 249 248 248 249 248 248 248 247 246 244 244 244 244 246 247 251 252 250 245 245 246 245 247 245 248 252 253 253 253 253 254 254 255 255 255 254 253 251 250 250 250 250 249 250 251 247 249 248 247 247 248 248 248 248 248 248 248 248 248 248 249 249 249 248 249 249 249 248 249 249 248
252 252 252 252 252 252 252 252 252 252 251 251 250 250 249 250 250 250 249 249 249 249 249 246 244 245 245 247 247 246 246 247 247 250 249 249 251 251 251 253 254 254 253 250 247 246 251 253 254 254 254 254 250 248 247 246 248 249 249 248 249 249 248 249 248 248 248 247 249 248 249 249 249 247 249 249 249 249 249 249 249 248 249 249 249 249 249
253 253 253 253 253 253 253 252 251 251 251 251 251 250 249 251 252 249 248 249 249 249 248 246 245 245 245 245 246 245 244 247 250 250 250 249 249 250 251 251 252 253 254 252 249 249 252 254 253 253 253 251 250 249 250 250 249 251 249 250 252 250 250 251 253 253 250 249 250 249 250 250 250 250 250 248 249 249 249 250 248 250 251 251 250 250 249
252 251 251 251 250 250 250 251 251 251 251 251 250 250 251 252 251 250 248 248 248 249 248 248 248 247 246 247 246 246 244 244 248 252 251 251 252 253 253 252 252 253 253 252 252 251 250 249 248 251 251 251 250 250 250 249 249 249 251 250 250 250 249 250 250 249 249 250 250 250 250 249 249 249 248 249 250 250 250 249 250 249 249 249 250 250 250
251 251 251 251 251 251 251 251 251 251 250 251 250 250 251 250 250 249 248 251 248 248 248 249 249 248 245 245 248 247 246 248 248 250 252 252 252 251 251 253 251 251 250 249 249 247 249 249 251 252 252 250 249 248 251 252 251 249 249 251 250 250 250 250 250 249 248 250 250 250 250 249 249 249 249 249 249 250 250 250 249 249 249 249 249 249 249
Wind_Speed
22 18 5 11 10 14 14 17 16 16 17 15 18 23 22 9 12 19 21 9 14 22 20 17 12 7 12 12 13 10 4 0 3 5 6 8 9 8 11 15 15 14 14 16 15 14 14 12 14 13 11 11 10 10 10 10 10 12 11 11 12 12 12 13 13 11 10 9 8 9 9 9 10 10 10 10 9 9 9 9 8 9 8 8 8 8 7
14 17 11 8 9 3 2 9 13 14 18 22 24 22 18 16 15 19 22 18 17 21 15 6 9 11 15 12 3 1 4 7 8 6 8 10 10 11 14 16 16 16 15 12 12 12 12 15 15 14 14 13 13 13 12 11 11 10 10 12 13 13 14 13 10 10 11 10 10 9 10 11 11 10 10 10 10 9 10 9 9 8 8 8 9 9 9
13 16 6 6 7 3 5 7 8 15 19 21 20 17 16 15 18 22 22 20 22 19 1 9 9 5 2 2 6 11 12 8 7 9 10 10 11 13 14 12 13 13 12 11 12 14 16 16 16 15 13 12 11 11 11 11 11 10 10 11 11 11 11 9 9 9 10 10 10 11 11 10 9 11 11 9 9 9 9 9 9 9 8 10 9 8 9
9 11 10 5 5 6 9 13 16 21 17 8 8 12 14 13 17 20 17 18 22 12 8 11 2 4 9 13 13 10 9 9 9 10 12 11 12 13 14 14 12 12 14 14 16 18 17 15 14 13 13 13 12 13 13 13 12 11 11 11 12 11 10 10 10 11 11 10 11 11 11 11 10 9 8 8 9 9 9 9 8 7 9 10 9 8 7
10 6 3 7 4 2 6 14 27 25 13 14 12 14 15 17 19 15 15 20 20 22 7 5 6 9 11 12 10 10 10 8 11 13 14 13 12 13 15 14 15 16 16 15 15 13 11 13 14 13 11 11 13 13 12 11 10 12 13 12 12 11 10 10 10 10 10 11 11 10 10 10 9 9 10 9 10 10 11 9 7 8 10 8 8 7 7
6 2 4 6 5 12 15 15 6 11 15 18 18 17 18 18 14 16 19 21 21 15 6 11 14 9 12 13 13 10 11 10 9 10 9 11 11 10 9 9 9 8 7 7 9 12 13 12 12 11 12 12 9 8 8 8 11 10 11 11 11 11 10 10 10 10 11 10 10 10 9 9 9 9 10 12 10 8 7 7 8 7 7 8 7 9 9
7 5 7 5 13 16 5 5 3 1 12 16 18 20 17 18 18 18 19 20 20 17 14 13 11 9 10 8 9 7 4 2 6 11 13 13 12 9 6 6 6 8 10 10 10 10 10 11 11 11 10 10 9 9 10 10 10 10 10 10 10 10 10 10 9 9 11 10 11 10 10 9 10 10 11 9 9 9 9 9 10 11 10 10 10 9 8
2 3 7 7 10 3 5 2 2 2 4 4 8 13 19 18 19 20 22 25 24 21 19 14 9 7 5 5 5 4 4 6 8 8 10 8 4 4 6 8 10 11 12 13 14 13 9 10 11 12 12 11 11 11 10 11 10 10 10 10 10 10 10 10 11 12 12 11 11 9 10 10 10 11 11 11 11 9 7 7 6 6 6 7 9 9 8
7 5 9 13 6 13 13 6 3 6 6 6 10 10 16 18 17 16 17 22 21 18 17 17 9 0 2 6 10 3 6 5 4 6 5 5 9 11 10 10 9 7 7 7 7 8 10 11 12 11 10 11 11 10 11 11 12 11 11 12 13 13 13 13 13 12 12 12 11 10 10 10 11 12 12 11 9 7 8 9 9 10 10 9 8 8 9
8 8 8 2 3 11 16 3 3 6 5 7 9 9 15 6 8 12 14 18 20 17 16 14 1 2 3 12 14 6 5 2 3 1 2 2 2 4 4 3 4 5 6 7 8 10 10 10 10 9 10 12 11 11 11 10 10 10 11 14 14 13 12 11 11 10 10 10 11 11 11 13 13 12 10 7 8 8 10 10 11 12 9 8 7 8 9
5 6 7 7 8 10 2 2 4 3 2 7 4 3 13 3 5 5 11 18 17 14 12 5 6 3 9 14 12 3 4 4 2 4 2 3 3 3 4 6 6 6 7 9 9 9 10 11 10 11 12 12 11 11 10 11 10 11 13 14 12 12 11 9 9 10 10 11 11 12 12 13 12 12 11 11 8 7 9 8 9 6 6 8 7 7 8
9 9 9 9 5 8 3 4 1 3 3 7 6 1 10 1 3 2 4 8 8 6 3 5 6 8 11 14 7 3 4 3 1 3 6 5 4 5 5 4 5 7 8 9 8 10 11 9 9 11 11 11 11 11 9 8 10 13 15 13 8 8 9 10 10 9 9 11 12 12 14 12 9 10 7 6 8 9 8 7 7 6 6 7 9 9 7
13 14 8 3 6 3 4 6 3 2 2 5 7 16 3 3 3 2 3 4 5 3 4 7 9 7 4 3 3 2 4 6 4 4 4 4 5 6 6 6 6 7 6 7 8 7 7 9 9 10 10 10 9 8 8 9 13 15 10 7 9 9 9 9 9 10 9 11 13 12 11 11 10 8 8 9 7 7 8 7 6 5 7 7 8 8 6
11 10 10 9 6 5 7 0 9 6 7 7 14 3 1 4 3 2 4 3 3 4 6 5 2 1 2 1 1 4 3 4 3 4 4 6 8 6 6 6 7 7 7 7 7 6 6 9 9 9 10 10 9 9 9 12 15 9 7 8 8 7 8 9 10 10 10 9 10 10 8 7 8 8 7 7 7 8 7 6 8 8 6 6 7 8 6
0 1 8 4 8 3 9 11 2 2 4 6 2 3 0 1 1 1 1 4 4 5 3 2 4 2 3 3 3 4 4 4 4 4 4 6 6 6 6 6 4 7 6 5 5 5 4 6 7 8 10 10 8 8 10 14 7 6 6 7 8 8 8 8 9 9 9 10 9 8 8 9 10 9 7 8 7 7 8 8 9 9 9 8 7 8 7
6 9 8 7 5 7 11 16 12 9 8 3 5 5 2 1 2 2 1 0 4 3 8 8 4 3 5 4 4 5 5 5 4 4 5 5 5 5 5 3 4 5 6 5 5 3 3 4 5 6 9 9 8 9 13 4 5 5 6 6 7 7 7 8 7 8 8 9 8 7 8 8 8 9 8 8 7 8 8 8 8 9 9 8 7 9 10
8 6 5 0 2 4 3 1 2 0 2 2 6 2 4 6 3 3 3 3 3 5 8 7 8 5 1 5 4 6 6 6 5 6 5 5 5 5 6 5 3 5 8 8 7 5 3 4 5 6 7 10 8 10 4 5 6 7 6 6 7 6 7 7 8 7 6 7 8 8 8 9 9 9 8 7 8 7 7 8 8 10 10 8 10 11 10
1 2 2 0 1 2 2 2 2 1 0 0 3 4 4 1 3 6 6 5 5 5 5 8 1 4 6 6 4 4 5 5 5 5 6 5 4 4 5 4 5 6 7 7 8 8 4 3 4 4 4 7 9 3 1 4 5 6 7 6 6 7 7 7 7 6 7 6 6 7 7 8 9 9 10 9 10 8 8 9 9 10 11 9 10 10 11
6 8 4 4 4 0 2 2 2 2 2 0 1 3 3 5 4 3 3 7 6 6 4 6 6 5 4 6 5 5 5 5 6 6 7 5 5 7 7 5 7 7 7 7 7 6 6 2 3 4 4 5 4 2 3 3 5 5 6 7 6 5 6 6 5 6 7 7 7 6 6 6 7 7 7 8 8 8 9 10 10 10 10 10 10 10 11
9 3 1 3 2 4 3 3 3 2 1 2 1 1 3 5 3 4 5 6 6 4 4 5 8 6 4 7 6 5 5 6 5 6 6 6 5 3 4 4 5 5 6 7 6 5 4 2 3 3 4 4 4 4 3 3 4 4 5 5 6 6 6 5 7 7 8 9 9 7 8 9 8 8 7 8 10 11 12 12 12 12 11 10 11 12 12
1 3 3 2 1 3 5 4 5 4 3 4 4 3 5 4 7 6 4 2 5 5 6 5 7 7 4 4 7 7 6 5 4 5 5 4 4 5 5 3 4 5 5 6 5 5 2 2 3 3 3 2 2 3 4 4 4 4 3 2 2 2 3 4 6 5 6 6 7 7 7 7 8 9 10 10 11 11 10 8 10 12 11 10 11 10 8
4 12 9 8 5 4 8 10 9 8 6 5 5 4 5 5 6 4 6 3 3 2 4 7 7 8 6 4 5 7 6 6 5 5 6 5 5 4 3 4 4 5 6 6 6 5 2 2 3 3 2 1 0 0 2 3 4 5 4 4 3 3 3 4 3 4 4 5 4 5 6 7 7 7 6 6 7 7 7 5 11 13 9 9 6 4 7
11 7 6 12 3 0 4 9 10 8 8 7 7 6 6 4 3 6 8 6 3 3 2 1 5 6 8 6 5 6 4 4 4 6 8 7 6 5 5 6 4 5 4 4 5 5 3 1 2 2 2 0 0 2 1 0 1 3 4 4 3 3 3 4 4 4 3 4 4 3 4 4 4 5 6 5 9 12 11 7 8 11 15 17 14 10 8
2 3 10 10 6 6 3 3 7 9 9 9 7 5 4 7 7 5 5 7 9 3 1 1 1 6 6 5 6 7 4 4 5 5 3 3 5 5 4 5 6 5 5 5 5 5 4 4 4 3 6 7 6 6 5 3 1 1 2 3 3 3 2 2 1 2 2 2 2 3 3 2 3 4 5 6 7 6 10 13 14 14 14 15 16 16 17
4 3 7 11 8 2 3 1 2 6 8 9 9 9 8 6 4 4 6 4 3 9 7 4 2 3 8 5 6 7 6 4 4 6 5 5 4 5 4 4 5 4 4 3 3 4 4 4 6 6 8 7 7 8 7 5 2 0 1 1 1 1 1 1 1 1 1 2 2 2 3 3 4 3 5 5 7 7 3 5 9 14 16 16 17 17 18
3 5 4 3 2 2 1 3 2 4 6 6 5 4 4 6 7 5 4 5 6 4 7 7 6 3 6 8 6 6 7 6 6 5 6 6 5 5 5 4 4 4 5 5 5 5 6 7 7 8 8 7 7 7 6 6 4 3 2 1 1 1 0 1 1 1 1 2 2 3 2 2 3 3 4 5 6 5 7 7 7 5 6 10 14 16 17
2 7 10 5 1 3 1 6 5 5 7 5 7 8 6 5 5 5 5 4 4 4 5 5 6 6 5 5 7 5 9 6 6 7 6 6 6 4 4 5 6 7 7 7 7 6 7 7 8 8 7 6 6 6 6 6 5 5 4 4 3 3 4 2 0 1 1 1 2 2 2 3 4 4 5 4 3 4 5 5 6 6 6 5 7 9 9
5 7 9 9 7 11 7 4 1 6 7 8 9 9 5 6 7 7 7 6 6 5 5 4 7 8 8 4 8 7 7 7 8 5 7 6 4 4 5 7 7 8 8 8 7 6 7 7 7 8 7 7 7 7 6 5 5 5 5 4 4 3 2 2 1 0 1 2 2 3 3 5 3 3 3 2 4 5 4 3 4 5 5 4 4 6 11
5 7 0 1 3 4 6 6 5 6 5 3 5 8 9 9 6 7 5 6 6 7 6 4 4 5 8 5 6 8 7 7 7 7 6 3 3 4 4 7 8 8 9 8 8 7 7 7 7 8 7 6 6 7 6 5 5 5 5 4 4 4 3 2 1 0 0 1 1 2 2 1 3 2 2 2 3 1 3 3 4 3 3 4 5 6 5
4 3 4 4 7 8 8 5 6 5 6 7 9 6 8 12 8 5 6 5 5 8 5 5 6 6 5 6 5 7 9 7 8 6 6 5 4 3 3 6 9 8 8 10 8 6 7 7 7 7 6 6 7 6 6 5 5 5 5 5 4 3 2 2 2 2 1 1 1 1 0 0 0 1 1 1 1 1 3 2 2 2 3 4 3 3 3
3 3 5 5 6 4 7 6 5 5 6 5 8 9 4 6 11 9 6 5 4 6 4 6 6 6 6 7 6 7 9 9 8 7 6 5 6 6 5 1 4 5 6 4 5 4 6 6 6 6 4 4 5 5 5 5 5 5 5 5 5 6 7 6 5 4 3 3 4 3 2 2 1 1 0 0 0 0 1 1 1 2 2 1 2 2 4
7 6 7 4 4 5 5 5 6 6 6 5 7 8 9 10 10 10 6 5 5 6 7 7 7 7 6 6 8 9 9 9 8 7 7 7 7 8 8 9 11 9 7 5 5 4 4 5 6 3 3 3 3 4 4 4 4 6 4 4 5 4 5 6 5 4 4 5 3 3 3 1 1 1 1 0 1 1 1 1 1 1 1 1 1 1 1
9 6 3 4 3 4 6 4 8 6 5 6 5 4 3 3 6 7 6 7 7 4 7 7 5 6 5 7 8 9 9 9 8 8 8 8 7 7 7 8 8 8 7 6 4 4 5 5 2 1 2 2 3 3 3 3 4 4 2 3 3 3 4 4 4 3 4 4 3 2 1 2 2 2 1 1 1 1 0 1 1 1 1 1 1 2 2
14 11 12 12 12 12 11 8 4 7 4 4 3 4 5 5 7 7 7 5 6 6 7 6 5 5 5 7 8 8 8 8 7 6 5 6 6 6 6 7 7 8 7 4 5 4 3 2 1 2 2 3 3 4 3 3 2 3 2 3 4 3 3 2 4 3 3 4 3 3 2 3 1 1 2 1 0 0 0 0 1 1 0 1 2 2 4
3 5 5 5 3 2 6 11 10 8 9 9 4 4 4 5 7 7 5 8 7 5 4 6 5 6 7 7 7 5 5 6 7 7 6 6 6 6 6 8 7 7 7 5 4 3 2 3 1 1 3 3 3 3 4 3 3 3 3 3 3 3 2 4 4 3 3 1 1 3 3 3 2 2 3 2 2 1 1 1 1 1 1 1 2 3 4
3 7 6 5 4 3 4 6 8 9 9 9 8 8 6 5 6 7 8 5 4 5 5 6 6 7 7 6 6 6 7 7 7 7 7 6 6 5 5 6 7 8 7 6 4 3 4 2 5 5 2 3 3 4 4 3 3 3 2 3 4 4 5 4 4 3 3 3 3 2 1 2 1 3 3 2 2 2 1 1 1 1 1 1 1 3 3
5 6 7 8 7 7 6 5 5 9 10 10 11 10 9 5 5 4 4 5 4 5 6 6 8 8 7 5 5 5 5 6 6 7 6 5 4 5 6 5 4 5 4 6 2 3 3 2 5 5 3 2 3 3 4 5 3 3 3 4 3 4 3 4 3 4 3 3 3 2 3 4 3 2 4 2 2 2 1 1 3 2 1 1 1 1 4
8 9 11 13 12 11 10 7 6 10 13 11 7 6 5 8 6 5 5 4 4 5 5 6 8 8 8 6 6 7 6 5 6 7 5 5 4 7 4 5 4 2 4 2 1 2 2 2 4 4 3 4 2 3 4 6 5 4 4 4 3 2 4 2 3 4 4 2 4 2 2 2 1 2 2 2 2 1 2 1 2 1 1 1 1 1 2
8 6 8 8 10 9 5 9 9 7 7 14 13 8 5 6 5 6 7 6 4 5 8 9 9 9 8 9 8 6 5 4 5 6 6 4 3 7 6 3 1 1 1 0 0 1 1 2 4 3 3 3 3 4 4 6 5 5 4 4 3 3 2 3 2 3 3 3 2 2 2 1 1 1 1 1 1 1 2 2 1 3 1 2 2 3 3
7 6 6 8 12 6 12 12 11 11 7 4 8 11 6 6 6 7 7 7 4 3 7 8 9 9 8 8 9 7 3 4 4 6 6 6 8 9 5 2 1 1 1 1 1 1 2 4 4 3 2 2 2 3 4 4 4 4 4 4 3 4 2 3 2 2 1 1 1 2 2 1 0 1 1 1 1 1 2 2 1 2 2 2 3 4 4
7 7 6 6 7 6 7 9 12 8 7 7 6 5 4 6 6 8 8 8 4 4 4 5 9 9 7 8 8 7 4 4 5 6 5 6 7 6 7 4 0 0 1 0 0 1 2 2 2 2 1 1 2 2 2 4 3 4 3 3 3 3 2 2 2 1 1 1 1 0 0 1 1 1 2 1 1 1 1 1 2 2 2 3 4 4 4
6 7 7 7 7 7 7 8 9 11 10 7 5 5 4 3 5 9 7 7 7 7 7 5 6 10 9 8 8 7 6 5 5 4 3 3 5 6 7 2 1 0 2 2 2 2 1 1 1 2 1 1 1 4 3 3 2 3 3 2 2 1 1 1 2 1 1 1 0 0 1 1 1 1 1 2 2 3 2 2 3 3 3 3 5 5 5
6 7 8 8 8 7 7 8 9 10 10 7 6 5 5 5 8 8 8 8 9 10 10 10 10 9 9 8 9 9 6 5 6 5 6 4 1 1 3 5 2 1 1 2 1 1 1 1 0 0 1 2 1 3 3 2 2 3 2 1 2 1 1 1 0 0 0 1 2 1 1 1 1 2 2 3 4 3 3 4 5 5 5 5 4 5 4
7 6 6 7 8 7 8 9 9 9 11 8 5 5 6 5 5 7 9 10 9 9 10 9 8 7 6 6 8 8 6 6 5 5 7 5 6 4 2 3 1 0 3 3 1 0 0 0 0 1 1 1 2 2 2 1 1 1 0 0 0 1 0 1 1 1 1 2 1 3 3 4 2 3 3 4 5 5 4 5 5 5 6 5 5 5 5
6 5 6 7 7 8 8 7 9 10 9 8 8 7 7 7 6 5 7 9 9 8 7 8 7 6 6 5 6 5 5 3 5 4 7 4 6 0 0 1 0 1 0 2 1 0 0 0 1 2 1 2 1 2 0 0 0 0 1 1 1 1 1 1 1 1 2 2 2 2 4 3 4 4 5 6 5 5 6 6 5 5 5 5 6 5 6
7 6 6 7 9 8 8 9 8 8 10 11 11 9 6 5 6 6 5 8 9 7 6 6 7 7 8 8 7 6 5 4 1 0 1 2 4 4 4 4 2 1 1 3 0 0 1 4 3 2 2 2 2 1 0 0 1 1 1 2 2 3 2 2 2 3 3 3 4 3 4 5 3 4 4 5 6 5 5 7 7 5 6 5 5 6 6
7 8 7 8 8 7 7 7 6 7 8 10 11 8 5 5 6 6 6 7 8 7 6 7 7 5 5 6 7 7 6 5 4 1 2 2 2 4 4 3 3 2 1 1 1 1 2 2 2 3 3 3 3 1 1 2 2 3 3 2 2 2 3 3 3 4 4 4 5 5 5 5 4 5 6 4 5 5 5 5 6 6 5 6 5 7 6
9 9 8 7 8 6 6 6 8 9 9 9 8 7 5 5 6 6 6 7 8 7 7 6 6 4 3 2 0 0 2 5 7 1 0 1 1 1 1 0 1 2 2 1 1 2 3 4 4 4 4 4 2 1 2 2 2 3 3 3 3 3 4 4 4 5 5 4 3 4 5 5 5 5 5 5 6 5 5 5 6 6 6 5 6 6 5
9 10 9 8 8 8 8 8 9 10 8 6 7 7 5 7 7 7 7 8 8 7 6 5 4 3 2 2 2 1 0 1 2 4 3 3 1 1 1 1 3 1 1 0 1 2 3 3 3 4 4 4 2 2 2 2 2 3 3 3 4 4 4 4 4 4 4 4 5 4 5 5 5 4 5 6 6 5 6 6 6 6 6 6 6 7 5
7 6 6 5 5 6 6 7 8 8 6 6 7 5 3 5 7 5 4 5 5 6 5 4 3 2 2 3 3 2 3 4 3 3 2 1 1 0 0 0 1 2 2 1 1 2 3 3 3 3 3 1 2 2 3 4 3 4 3 4 3 3 4 5 4 5 4 5 5 5 5 6 6 6 7 5 6 5 6 6 5 7 9 8 7 6 5
6 6 6 6 6 7 8 8 7 5 5 5 4 3 4 5 6 5 3 3 4 6 6 3 3 2 3 4 3 3 4 3 2 2 1 1 0 0 0 0 0 1 1 1 1 2 2 2 2 3 3 3 2 3 3 3 3 3 4 4 4 4 4 5 5 4 4 5 5 5 6 5 5 5 5 5 5 5 6 6 6 5 5 6 6 6 6
9 7 6 6 5 6 6 7 7 6 6 6 5 5 5 5 5 4 3 3 4 4 4 5 3 1 1 2 3 3 2 2 3 2 2 2 1 1 2 2 1 2 1 1 2 2 2 2 3 4 4 3 3 3 4 5 4 4 4 5 4 4 4 5 5 4 4 5 5 5 5 5 5 6 6 5 5 6 6 5 5 5 5 5 6 6 6
Wind_Direction
230 237 195 170 180 186 187 198 196 195 203 196 199 217 223 163 201 238 257 146 225 253 250 245 241 207 237 230 229 230 231 204 188 181 190 200 202 188 190 202 202 198 196 199 198 194 194 184 188 189 188 190 188 187 183 181 177 182 175 176 177 178 178 183 187 180 171 173 170 168 170 171 172 173 172 170 168 168 175 179 182 183 180 177 176 182 186
242 243 225 168 175 152 144 205 206 203 200 206 208 219 220 212 226 241 255 248 235 248 258 237 231 209 227 242 243 157 191 221 212 197 210 211 203 199 205 207 205 203 201 192 194 192 190 191 188 186 188 189 188 183 181 177 178 178 170 183 181 184 187 188 178 172 172 171 173 170 173 178 177 173 173 173 171 173 182 184 182 179 180 184 187 181 175
250 253 251 136 184 148 221 226 217 219 216 214 211 218 226 223 238 242 249 261 264 257 203 242 236 234 278 294 230 224 225 223 206 209 218 219 211 212 216 213 209 204 194 192 187 191 197 194 192 189 188 185 180 180 178 177 177 175 175 180 188 189 190 182 174 170 173 178 173 179 181 175 176 176 176 173 174 181 184 184 183 180 180 187 191 186 179
261 254 249 233 157 204 223 240 232 228 218 215 211 219 220 210 224 236 247 255 256 260 166 248 176 174 211 227 233 229 232 219 208 212 222 220 217 215 217 214 207 199 196 193 193 197 195 192 187 184 183 181 179 186 180 179 175 167 175 182 186 187 186 180 177 177 180 176 179 184 178 183 180 177 171 172 181 186 185 187 186 174 190 195 188 184 177
239 276 166 221 138 151 247 245 236 228 207 209 217 225 221 214 214 224 231 240 244 251 220 228 233 215 224 234 235 234 233 220 207 213 218 219 219 217 214 209 204 203 199 197 197 193 186 188 188 187 176 174 188 185 180 178 163 172 180 182 183 184 184 184 183 180 179 181 185 183 186 181 176 174 177 182 187 187 193 188 172 187 195 186 192 184 184
244 194 118 111 155 216 225 242 251 211 206 200 208 219 219 222 202 219 225 235 246 250 229 225 241 224 227 224 232 215 213 208 213 229 236 233 228 223 216 207 203 198 187 189 190 191 191 187 181 172 178 183 180 171 165 160 173 177 178 182 183 185 182 186 183 180 183 184 187 187 181 179 176 181 184 193 192 189 181 175 185 188 191 196 192 194 193
217 135 115 174 213 227 240 346 312 266 214 206 210 229 226 225 222 233 248 254 256 253 241 242 247 236 239 240 241 242 266 243 213 216 225 228 225 215 190 176 174 181 186 186 185 183 182 174 167 162 170 169 157 155 161 166 172 174 184 183 185 184 187 187 181 181 184 187 189 186 182 179 181 188 193 193 189 190 186 187 185 191 193 195 201 197 198
54 126 183 228 221 241 305 279 21 216 104 154 196 243 245 233 224 218 232 243 247 251 254 251 239 236 263 296 273 252 249 206 219 225 233 235 205 173 174 180 192 185 186 185 183 184 165 161 168 170 171 163 161 169 163 169 171 177 179 187 192 188 192 189 188 188 187 189 188 184 181 182 186 193 196 197 194 187 183 190 198 197 209 206 202 201 200
209 197 211 237 347 317 281 248 173 151 165 154 168 222 245 233 222 217 226 241 248 251 255 256 259 336 336 293 282 258 229 237 236 220 217 163 184 188 195 191 193 186 177 170 157 144 157 166 166 173 161 160 162 160 167 176 176 179 182 192 196 197 198 194 193 190 188 186 187 184 184 186 194 199 198 199 197 180 188 196 195 203 207 204 202 200 200
200 206 230 241 240 248 258 229 208 178 174 170 178 189 264 239 203 212 213 235 240 244 249 255 250 100 302 277 265 225 218 194 164 168 187 185 169 158 138 119 121 131 136 130 144 149 155 165 165 154 155 159 161 167 176 174 175 183 189 202 203 199 199 195 191 185 184 184 187 188 188 196 200 204 202 199 198 185 192 195 203 208 203 201 206 203 204
147 215 229 216 220 245 221 185 165 178 159 134 99 79 258 253 193 213 196 224 234 235 242 235 116 160 241 259 258 225 174 193 171 125 83 116 128 131 146 155 144 136 139 142 143 143 149 160 162 156 155 157 160 173 176 179 182 189 202 209 200 198 197 186 184 185 187 189 191 191 196 202 201 201 199 199 192 184 204 206 215 203 196 206 210 211 213
201 211 221 228 213 253 229 188 200 213 174 127 96 238 258 256 208 218 171 230 250 260 218 150 162 179 230 247 274 197 163 131 113 142 146 127 115 93 89 83 124 130 128 119 134 151 165 161 147 148 151 158 169 173 179 173 186 203 211 206 191 191 190 189 186 186 188 191 195 196 202 203 199 203 195 181 187 193 202 205 210 199 200 210 215 221 213
220 221 238 282 275 257 179 177 193 182 193 137 153 228 243 199 208 217 166 219 232 213 183 168 192 233 232 269 289 57 129 98 63 54 64 83 93 103 102 108 111 112 116 129 143 148 135 135 139 144 147 157 171 175 167 180 205 213 203 182 187 190 183 182 186 190 192 195 198 203 201 201 198 196 191 195 184 185 199 201 202 208 207 215 223 232 217
215 215 225 232 263 235 158 344 156 173 115 193 223 228 112 134 197 234 190 219 222 175 167 176 183 247 294 318 87 111 81 105 85 72 73 74 64 53 76 91 103 104 99 100 100 103 127 137 144 147 152 162 173 167 179 200 213 197 172 179 172 172 178 185 190 191 193 198 200 202 197 184 187 198 195 186 189 192 187 189 204 217 216 220 227 238 233
324 131 229 195 236 237 122 119 71 280 178 237 160 146 284 189 197 171 220 188 198 145 117 140 151 121 58 61 71 74 75 79 88 79 82 88 96 96 90 78 66 103 105 111 120 125 134 141 148 155 155 164 167 171 189 212 189 159 168 160 167 174 180 185 189 191 193 193 195 192 193 191 191 199 183 186 189 179 184 193 205 215 220 219 225 239 243
176 193 209 210 218 133 179 144 179 196 198 187 172 131 118 203 177 187 176 229 196 161 137 140 119 117 106 80 90 87 82 85 81 70 65 70 71 65 48 73 108 100 99 95 93 77 93 117 133 145 153 155 163 178 210 158 142 149 150 161 159 170 181 188 186 193 194 194 195 192 192 184 191 193 188 190 186 190 190 193 201 215 225 216 221 235 239
174 203 212 338 294 160 169 53 318 275 197 173 175 140 155 154 226 186 140 175 164 157 135 126 137 122 157 134 142 131 143 124 122 119 125 122 125 122 124 113 113 119 133 131 116 99 97 129 145 151 156 150 166 193 193 145 153 155 155 151 160 173 183 187 192 195 188 192 194 194 189 180 189 198 194 177 192 198 184 199 203 215 225 206 216 227 234
25 352 170 343 340 285 272 333 241 242 328 182 138 144 120 198 177 179 163 166 149 140 150 118 99 128 154 135 116 115 120 119 114 105 101 90 83 100 103 100 106 120 112 114 119 121 106 114 131 125 133 151 165 202 168 143 144 140 144 147 168 187 187 190 195 179 186 200 199 197 191 192 199 199 193 189 199 192 191 206 209 216 225 211 220 226 233
132 242 152 164 207 294 276 286 309 290 272 282 153 177 177 157 162 140 127 146 150 153 149 131 139 144 146 118 115 126 125 129 139 140 137 137 146 149 139 148 132 119 121 117 126 132 134 77 71 67 84 67 88 81 95 128 135 141 149 164 174 179 188 190 175 174 190 196 197 195 196 199 203 201 195 193 198 197 198 206 213 219 225 219 223 226 233
187 240 219 229 298 253 241 217 233 241 173 36 15 211 148 131 106 103 130 120 113 131 126 148 137 151 162 133 141 137 143 143 143 140 138 136 113 87 108 119 108 106 116 133 137 124 116 78 71 74 73 71 68 78 74 92 116 127 146 167 176 189 187 176 184 184 195 193 187 195 200 194 198 205 206 196 198 207 202 205 207 219 219 221 224 224 231
299 346 280 235 317 289 247 218 224 213 165 151 132 141 126 121 103 94 65 67 151 156 155 149 136 136 181 166 151 144 143 140 136 139 137 130 127 131 120 105 115 128 136 114 116 113 101 110 111 95 91 88 92 88 102 115 113 118 136 157 176 183 183 177 202 200 202 198 200 201 203 207 219 209 201 199 210 225 226 207 208 212 215 226 228 229 229
195 205 200 146 144 228 218 218 210 198 184 162 140 119 107 113 117 120 105 63 45 110 143 158 151 154 161 161 152 143 150 151 141 129 123 120 121 110 106 103 107 104 105 127 126 120 133 145 138 142 148 163 220 112 115 129 135 138 155 153 173 211 193 204 213 193 215 217 214 209 205 212 221 251 263 235 228 224 241 215 226 235 230 232 231 206 227
216 204 167 182 160 153 215 195 188 165 162 154 144 156 157 171 156 147 128 113 79 73 58 145 151 148 157 158 135 120 125 141 149 145 141 137 133 133 136 117 104 113 115 116 123 133 164 111 121 133 139 25 358 2 21 59 129 131 138 161 190 215 193 221 211 209 212 221 222 219 227 218 224 237 269 276 250 244 242 229 232 239 243 248 246 223 198
349 172 176 182 160 177 235 206 158 161 167 157 155 170 176 169 168 173 153 154 146 145 74 52 152 146 125 134 132 124 115 123 127 129 120 109 125 131 143 139 141 124 126 132 140 152 154 135 123 96 65 38 22 11 10 6 359 125 157 163 201 230 225 250 236 222 223 227 215 216 244 221 219 231 249 267 282 257 249 251 248 244 244 248 249 250 246
207 197 174 184 190 158 20 18 142 157 163 156 158 172 177 158 169 167 157 154 158 144 141 121 86 127 132 139 135 135 135 135 130 128 120 114 114 123 126 112 130 140 148 141 123 119 114 103 85 77 68 33 19 13 3 1 12 106 127 148 223 257 199 227 227 230 200 217 221 210 226 228 239 218 229 242 262 284 307 277 265 257 255 253 254 255 256
142 135 139 121 76 48 353 68 61 137 159 153 126 158 172 158 155 152 159 147 143 139 130 135 121 100 126 131 122 118 98 105 113 107 100 96 89 79 79 97 109 86 82 72 68 70 78 81 84 73 58 22 10 358 0 359 27 48 50 52 34 32 326 224 198 237 217 220 218 229 221 216 219 213 234 231 244 264 286 303 319 310 287 270 265 262 263
80 134 113 81 224 265 214 167 210 174 160 160 150 159 160 139 127 108 91 81 96 117 124 125 120 124 91 103 103 98 118 113 78 71 81 78 70 64 68 75 76 78 77 70 60 56 74 81 78 69 53 16 360 357 0 3 28 45 43 44 44 32 24 50 168 229 228 216 213 216 206 211 215 216 227 229 235 243 247 258 270 280 293 311 312 300 282
149 173 160 166 201 205 209 201 175 150 155 158 148 140 140 124 115 107 100 98 90 84 78 89 118 112 99 88 105 95 83 91 100 91 79 66 34 33 57 80 83 81 76 69 58 50 62 69 70 66 39 8 358 357 1 6 39 48 47 52 54 54 38 41 63 130 194 200 195 193 205 218 211 217 219 210 220 236 237 242 247 261 285 286 281 310 306
188 192 253 84 161 122 94 103 94 113 112 87 113 122 129 122 126 124 129 128 131 115 99 70 50 86 115 110 108 115 110 108 104 98 95 67 43 48 72 91 86 80 74 66 51 43 54 55 55 55 25 1 353 358 357 16 43 42 42 38 47 35 23 18 54 126 139 168 189 198 209 192 190 193 204 211 224 223 229 236 247 259 254 289 326 317 312
182 147 107 109 120 128 117 120 134 131 131 142 134 144 147 132 132 147 142 148 140 122 132 117 99 93 106 107 113 129 130 125 115 102 85 58 36 24 59 106 100 82 69 53 42 40 56 57 56 48 12 347 349 353 1 24 35 42 45 40 41 22 344 352 45 61 63 42 357 49 63 85 85 149 188 214 216 217 218 243 247 250 274 290 277 251 270
93 73 96 106 109 118 136 145 126 134 140 148 144 135 138 143 142 142 151 137 114 118 128 119 117 112 96 106 101 94 96 100 99 93 78 61 41 32 11 357 106 94 83 74 50 53 64 63 56 42 349 344 347 358 11 31 32 37 39 31 28 24 37 44 56 58 51 44 35 49 36 48 36 62 66 85 28 259 261 233 268 266 252 241 253 258 265
100 79 78 72 107 114 97 115 124 137 147 139 132 148 157 148 149 152 148 139 144 138 127 114 113 117 122 116 107 103 102 102 98 88 79 62 54 43 50 69 83 93 96 88 70 65 68 68 54 12 336 350 5 19 34 45 49 57 46 45 46 39 46 64 55 55 61 72 74 73 79 96 53 82 90 96 184 222 212 196 258 263 251 253 274 290 301
125 105 88 96 72 93 127 152 146 151 146 151 149 131 113 111 124 133 136 134 119 107 113 115 117 118 123 115 106 106 103 101 92 84 76 70 62 60 65 75 85 92 90 83 82 75 76 78 66 334 2 2 23 28 46 70 81 89 85 92 94 86 82 83 103 92 81 81 87 122 131 123 163 135 150 165 182 153 165 206 223 253 281 288 270 300 315
163 176 185 185 168 171 166 183 176 126 91 61 89 107 105 119 126 122 121 117 113 118 126 126 118 112 106 104 111 118 125 115 99 85 87 94 90 85 82 89 94 94 92 87 75 63 49 43 13 13 6 20 18 26 29 40 64 79 90 89 91 89 82 62 65 80 78 56 50 44 58 70 43 62 64 71 60 81 40 79 316 246 340 348 359 335 329
43 55 81 102 33 96 152 152 158 154 140 128 102 80 81 104 118 121 124 129 133 134 120 100 97 94 97 98 99 99 101 117 126 126 126 120 121 121 119 110 103 95 83 63 57 37 4 342 5 41 31 30 29 23 28 33 34 49 45 71 70 69 62 63 62 68 84 78 66 57 44 49 42 40 49 59 49 45 51 35 18 18 31 359 338 360 358
76 110 95 76 54 42 100 142 149 148 146 141 140 137 126 115 116 125 126 119 100 103 107 106 101 94 87 97 105 111 117 120 125 126 129 132 135 132 121 113 111 102 99 80 54 31 345 346 32 53 44 33 34 13 19 37 36 42 51 66 71 71 68 70 70 62 55 75 65 60 82 80 78 59 65 52 46 37 45 23 23 25 29 4 353 356 341
31 103 108 95 65 72 74 77 110 129 128 132 134 131 122 109 110 90 89 98 97 105 117 119 107 101 101 92 99 95 101 122 130 130 133 132 131 119 112 101 92 115 110 94 15 18 337 13 47 53 50 44 40 20 14 39 49 46 64 67 72 73 74 71 58 71 49 53 67 56 43 51 44 37 36 42 36 24 30 20 3 9 355 347 347 345 334
58 51 59 79 68 78 70 42 71 104 111 95 57 75 106 123 118 111 105 94 99 104 100 94 106 113 112 107 91 96 98 98 110 115 117 119 126 105 78 93 92 89 94 131 320 1 326 35 53 48 50 42 33 11 12 32 46 48 57 60 67 70 73 77 68 60 61 45 48 52 55 46 54 35 17 28 24 24 4 356 349 332 307 324 320 324 310
96 86 81 85 68 65 83 55 44 52 92 125 122 96 83 102 108 109 99 92 83 106 108 111 117 113 117 115 111 99 88 93 107 111 109 95 89 99 102 107 111 108 155 269 101 310 354 56 53 54 46 38 25 11 18 29 40 47 47 59 60 66 69 74 91 79 69 66 63 55 56 41 51 45 26 6 12 355 358 339 319 304 321 300 311 300 298
98 91 97 97 85 85 77 73 59 65 69 67 118 130 143 126 121 111 108 99 77 100 121 131 126 122 123 121 119 114 107 92 110 110 112 109 103 101 96 42 356 308 296 65 31 352 66 68 67 52 40 17 35 28 14 38 45 52 62 71 79 81 83 91 89 90 59 65 65 56 66 67 27 346 311 324 335 329 313 305 309 306 297 297 292 285 293
91 97 88 78 86 67 76 92 86 77 80 79 73 82 104 127 131 115 115 117 104 90 100 121 122 115 122 123 120 120 114 98 97 109 123 114 100 109 114 129 221 299 310 323 91 57 66 89 81 66 11 30 6 34 39 30 56 67 71 75 75 81 79 72 78 82 96 82 74 35 325 332 334 329 307 311 294 287 279 277 282 279 272 285 293 291 288
102 96 94 88 83 93 94 98 106 92 71 63 67 71 74 88 112 118 120 114 106 103 96 83 93 118 121 115 114 108 95 94 92 69 55 109 138 130 111 175 193 163 295 77 42 71 43 47 26 62 31 33 7 22 48 60 62 66 71 69 75 74 86 78 79 45 86 113 81 201 280 235 250 283 294 296 298 296 286 291 289 284 279 271 268 274 272
99 106 97 97 108 105 107 105 99 103 96 71 68 76 88 97 105 107 108 107 109 110 101 103 100 101 113 116 114 104 105 107 103 106 79 39 27 232 162 163 164 236 234 106 99 81 80 40 47 332 75 96 10 23 51 71 74 73 76 56 56 72 68 80 105 69 51 357 324 312 286 278 280 273 280 285 279 278 289 285 280 282 279 272 267 269 266
83 101 113 118 113 113 111 109 108 102 96 82 63 70 78 78 86 107 112 111 106 104 112 113 112 110 113 120 116 114 124 119 113 111 101 71 52 29 81 114 183 156 113 118 113 144 176 205 204 289 3 26 27 54 87 81 108 109 99 90 79 52 48 356 334 6 326 293 282 270 271 276 274 264 265 277 280 282 272 269 266 265 268 270 265 263 264
94 106 113 115 116 114 109 106 110 108 107 109 87 67 64 75 72 73 97 102 103 104 104 109 111 112 109 97 98 106 126 130 138 128 103 100 101 156 213 148 94 106 214 139 155 173 263 250 259 269 266 309 19 63 75 50 110 244 230 220 212 237 246 248 260 267 256 262 267 266 258 254 254 258 260 257 257 261 264 264 266 258 257 267 266 267 264
94 89 97 98 97 95 101 105 108 112 113 105 91 67 54 67 77 73 74 92 95 92 95 103 103 103 107 103 94 90 81 68 47 205 205 179 164 189 156 150 175 178 188 123 136 220 251 259 261 249 281 294 312 20 35 355 338 301 259 247 239 237 246 251 257 262 259 257 260 261 258 258 259 258 243 247 250 255 261 258 261 262 246 254 260 261 263
99 93 89 96 99 103 110 115 122 113 106 95 89 88 59 63 77 79 72 74 87 87 81 79 84 84 89 111 117 113 106 88 42 22 49 37 86 100 137 156 176 207 140 146 221 241 242 263 272 277 271 280 288 281 295 307 304 286 274 269 256 248 256 259 254 256 259 260 260 257 256 250 248 249 255 256 257 256 260 264 267 266 263 259 263 266 267
102 100 95 94 97 98 93 90 91 89 85 92 106 106 106 88 82 80 77 78 77 77 74 71 74 77 88 95 287 181 160 131 104 36 196 97 113 118 79 109 219 211 219 221 280 291 280 271 271 265 263 264 264 260 260 268 264 268 270 264 264 262 254 256 261 254 255 256 258 257 265 265 260 255 253 251 257 255 254 255 262 270 269 263 262 262 263
81 93 99 95 93 92 93 96 95 93 91 101 101 100 103 101 89 80 79 79 80 78 78 75 75 66 54 65 92 74 269 211 148 168 193 162 170 163 218 203 242 222 194 194 274 287 277 280 296 294 281 271 254 253 250 245 249 251 253 256 254 256 255 251 253 249 249 259 256 254 255 258 259 252 256 254 253 254 254 256 257 256 263 266 266 264 260
93 85 74 52 69 69 79 91 83 84 100 99 98 104 102 98 93 73 72 86 96 95 86 76 66 53 41 30 21 16 28 40 60 82 110 161 191 193 220 204 237 255 240 230 250 276 283 306 327 322 318 295 272 253 248 249 248 257 257 262 265 264 257 256 256 253 246 250 254 255 256 253 255 255 253 251 254 254 252 252 256 259 262 261 262 264 263
77 73 74 74 70 65 45 50 70 89 89 86 86 76 72 76 92 93 93 105 108 104 100 84 55 37 43 29 22 16 15 22 34 47 71 38 140 254 282 237 221 239 258 237 251 267 292 304 294 288 289 281 264 257 248 251 252 259 259 263 264 269 271 273 269 268 265 258 258 258 259 258 256 257 256 255 258 261 260 260 261 260 257 258 259 261 263
77 80 84 83 81 74 67 56 50 56 59 64 70 76 79 90 94 91 70 65 105 127 141 118 83 21 49 21 16 0 352 18 30 15 21 17 5 351 336 25 17 360 7 331 305 300 285 282 285 288 282 273 267 264 267 270 267 266 268 267 264 267 267 265 267 270 267 267 263 265 263 260 255 259 263 258 256 257 261 259 260 259 260 260 260 260 264